Skip Navigation Links
NOAA logo - Click to go to the NOAA homepage
NOAA's National Weather Service
Alaska Aviation Weather Unit
  NWS logo - Click to go to the NWS homepage
Left Navbar Graphic     17 AKDT = 01 GMT

   
NOAA is celebrating 200 years of science, service, and stewardship. Visit the NOAA 200th celebration Web site to learn more.
USA.gov is the U.S. Government's official Web portal to all Federal, state and local government Web resources and services.
Facebook
NWS on Facebook

Important Change Regarding the AAWU Web Presence

 

Over the last several months, the AAWU has been working to navigate its webpages to a nationally supported server. Security, as well as other needs, have necessitated the change.  We have been given an extension for the site changeover while we diligently work at addressing feedback received. As of July 14, 2017, aawu.arh.noaa.gov will be discontinued. The new AAWU web address is weather.gov/aawu. It is now live and will run in-parallel with the old site until it is discontinued on July 14, 2017. Please continue to send any feedback or questions regarding the new webpages to nws.ar.aawu.webauthors@noaa.gov.  Thank you for your patience during this time of transition.
AAWU Home :: Display TAF Add Bookmark
METAR PAGL 172056Z AUTO 34008KT 9SM -SN OVC024 01/M02 A2953 RMK AO2
     RAB49E52SNB52 SLP997 P0000 60000 T00061017 53004 FZRANO=

METAR PAGL 172156Z AUTO 35010KT 10SM BKN022 OVC027 01/M03 A2953 RMK AO2
     UPB12E16SNE12 SLP996 P0000 T00111028 FZRANO=

METAR PAGL 172256Z AUTO 35008KT 10SM OVC024 01/M02 A2953 RMK AO2 SLP997
     T00111022 FZRANO=

SPECI PAGL 180023Z AUTO 34008KT 10SM BKN024 01/M03 A2953 RMK AO2
     FZRANO=

METAR PAGL 180056Z AUTO 35009KT 10SM OVC026 01/M03 A2952 RMK AO2 SLP994
     T00111033 FZRANO=


NOAA's National Weather Service
Alaska Aviation Weather Unit
6930 Sand Lake Road
Anchorage, AK 99502-1845
Disclaimer
Credits
Glossary
Privacy Policy
About Us
Career Opportunities
Contact AAWU Internet Services Site last modified: April, 17th 2012